IU5JAE-13 Weather Reports


time (UTC)temp
C
wind
direction
speed
KPH
gust
KPH
rain 1hr
cm
rain 24hr
cm
rain mn
cm
humidity
%
barometer
mb
20260507221524 11 92 1.6 3.2 0.00 0.00 0.00 88 1013.5
20260507220522 11 93 1.6 3.2 0.00 0.00 0.00 87 1013.4
20260507215519 11 57 1.6 6.4 0.00 0.00 0.00 87 1013.4
20260507214517 11 118 1.6 3.2 0.00 0.00 0.00 87 1013.3
20260507213535 12 123 0.0 4.8 0.00 0.00 0.00 86 1013.3
20260507212532 12 171 1.6 4.8 0.00 0.00 0.00 83 1013.4
20260507211530 11 127 1.6 3.2 0.00 0.00 0.00 87 1013.4
20260507210527 11 112 0.0 1.6 0.00 0.00 0.00 86 1013.6
20260507205525 12 137 0.0 3.2 0.00 0.00 0.00 85 1013.7
20260507204523 12 122 1.6 3.2 0.00 0.00 0.00 83 1013.6
20260507203520 12 206 1.6 6.4 0.00 0.00 0.00 82 1013.5
20260507202518 12 120 1.6 3.2 0.00 0.00 0.00 83 1013.4
20260507201515 12 145 3.2 4.8 0.00 0.00 0.00 81 1013.4
20260507200533 12 26 0.0 3.2 0.00 0.00 0.00 80 1013.5
20260507195531 12 316 0.0 4.8 0.00 0.00 0.00 79 1013.5
20260507194528 13 62 0.0 1.6 0.00 0.00 0.00 75 1013.6
20260507193526 13 36 0.0 3.2 0.00 0.00 0.00 75 1013.4
20260507192524 13 0.0 0.0 0.00 0.00 0.00 80 1013.4
20260507191521 13 0.0 1.6 0.00 0.00 0.00 80 1013.4
20260507190519 13 31 1.6 3.2 0.00 0.00 0.00 81 1013.5
20260507185516 13 0.0 0.0 0.00 0.00 0.00 80 1013.3
20260507184534 13 293 0.0 3.2 0.00 0.00 0.00 82 1013.2
20260507183531 13 0.0 1.6 0.00 0.00 0.00 82 1013.1
20260507182529 13 295 0.0 3.2 0.00 0.00 0.00 82 1013.2
20260507181527 13 243 0.0 3.2 0.00 0.00 0.00 82 1013.1
20260507180524 13 68 0.0 3.2 0.00 0.00 0.00 82 1013.1
20260507175522 14 269 0.0 3.2 0.00 0.00 0.00 79 1013.0
20260507174519 14 197 1.6 8.0 0.00 0.00 0.00 79 1012.9
20260507173517 14 252 1.6 4.8 0.00 0.00 0.00 79 1013.0
20260507172535 14 174 0.0 4.8 0.00 0.00 0.00 76 1012.9
20260507171533 15 263 0.0 3.2 0.00 0.00 0.00 75 1013.0
20260507170530 15 168 3.2 8.0 0.00 0.00 0.00 74 1012.9
20260507165527 15 195 4.8 14.5 0.00 0.00 0.00 74 1012.9
20260507164525 15 187 3.2 6.4 0.00 0.00 0.00 74 1012.8
20260507163523 16 224 1.6 4.8 0.00 0.00 0.00 72 1012.8
20260507162520 16 208 1.6 8.0 0.00 0.00 0.00 72 1012.9
20260507161518 16 193 3.2 6.4 0.00 0.00 0.00 71 1013.0
20260507160515 16 180 4.8 11.3 0.00 0.00 0.00 69 1012.8
20260507155533 17 205 4.8 9.7 0.00 0.00 0.00 67 1012.8
20260507154531 16 181 4.8 12.9 0.00 0.00 0.00 68 1012.8
20260507153528 16 194 8.0 14.5 0.00 0.00 0.00 66 1012.7
20260507152526 17 164 4.8 12.9 0.00 0.00 0.00 67 1012.8
20260507151523 16 184 4.8 14.5 0.00 0.00 0.00 66 1012.8
20260507150521 17 207 3.2 9.7 0.00 0.00 0.00 66 1012.8
20260507145519 16 203 8.0 14.5 0.00 0.00 0.00 66 1013.0
20260507144516 16 183 9.7 19.3 0.00 0.00 0.00 66 1012.9
20260507143534 17 192 8.0 17.7 0.00 0.00 0.00 65 1012.9
20260507142531 17 233 6.4 16.1 0.00 0.00 0.00 63 1013.0
20260507141529 17 195 6.4 14.5 0.00 0.00 0.00 65 1013.1
20260507140527 17 182 9.7 20.9 0.00 0.00 0.00 64 1013.2
20260507135524 17 196 9.7 17.7 0.00 0.00 0.00 65 1013.3
20260507134522 16 189 9.7 19.3 0.00 0.00 0.00 64 1013.2
20260507133519 17 188 9.7 24.1 0.00 0.00 0.00 62 1013.3
20260507132517 17 213 8.0 24.1 0.00 0.00 0.00 59 1013.3
20260507131535 17 227 6.4 12.9 0.00 0.00 0.00 60 1013.5
20260507130532 18 207 6.4 12.9 0.00 0.00 0.00 60 1013.4
20260507125530 18 187 8.0 16.1 0.00 0.00 0.00 61 1013.4
20260507124527 17 172 6.4 19.3 0.00 0.00 0.00 62 1013.5
20260507123525 18 214 6.4 19.3 0.00 0.00 0.00 62 1013.3
20260507122523 17 219 4.8 16.1 0.00 0.00 0.00 62 1013.3
20260507121520 17 202 6.4 16.1 0.00 0.00 0.00 63 1013.4
20260507120518 16 225 4.8 11.3 0.00 0.00 0.00 65 1013.4
20260507115515 17 213 4.8 14.5 0.00 0.00 0.00 67 1013.5
20260507114533 17 144 8.0 19.3 0.00 0.00 0.00 64 1013.4
20260507113531 18 142 6.4 17.7 0.00 0.13 0.00 64 1013.5
20260507112528 18 148 4.8 12.9 0.00 0.25 0.00 65 1013.5
20260507111526 18 92 3.2 14.5 0.00 0.28 0.00 63 1013.5
20260507110523 17 224 3.2 9.7 0.00 0.41 0.00 68 1013.6
20260507105521 18 232 4.8 9.7 0.00 0.43 0.00 69 1013.7
20260507104519 17 188 9.7 17.7 0.00 0.43 0.00 71 1013.8
20260507103516 17 166 4.8 9.7 0.00 0.43 0.00 70 1013.9
20260507102534 17 206 6.4 11.3 0.00 0.51 0.00 69 1014.0
20260507101531 17 156 6.4 11.3 0.00 0.97 0.00 71 1013.9
20260507100529 17 281 3.2 6.4 0.00 1.17 0.00 69 1014.0
20260507095527 15 254 3.2 6.4 0.00 1.17 0.00 74 1014.0
20260507094524 16 233 4.8 9.7 0.00 1.17 0.00 75 1014.0
20260507093522 16 206 6.4 20.9 0.00 1.17 0.00 75 1014.0
20260507092519 16 227 4.8 11.3 0.00 1.17 0.00 75 1014.0
20260507091517 15 181 6.4 12.9 0.00 1.22 0.00 80 1014.0
20260507090535 15 180 8.0 14.5 0.00 1.22 0.00 80 1013.9
20260507085532 15 157 6.4 12.9 0.00 1.22 0.00 80 1014.0
20260507084530 15 155 4.8 12.9 0.00 1.22 0.00 80 1013.9
20260507083527 15 131 4.8 9.7 0.00 1.22 0.00 82 1013.9
20260507082525 15 155 6.4 12.9 0.00 1.22 0.00 82 1013.8
20260507081523 14 143 4.8 11.3 0.00 1.22 0.00 84 1013.8
20260507080520 13 157 4.8 11.3 0.00 1.24 0.00 84 1013.9
20260507075518 14 111 1.6 4.8 0.00 1.24 0.00 79 1013.8
20260507074516 13 157 4.8 11.3 0.00 1.24 0.00 82 1013.7
20260507073533 14 118 3.2 9.7 0.00 1.24 0.00 81 1013.5
20260507072531 13 100 3.2 6.4 0.00 1.24 0.00 84 1013.5
20260507071528 13 110 1.6 4.8 0.00 1.27 0.00 85 1013.5
20260507070526 12 122 3.2 6.4 0.00 1.27 0.00 85 1013.5
20260507065523 12 121 3.2 6.4 0.00 1.37 0.00 87 1013.4
20260507064521 12 151 3.2 8.0 0.00 1.70 0.00 85 1013.2
20260507063519 11 128 3.2 4.8 0.00 1.88 0.00 87 1013.1
20260507062516 12 106 3.2 8.0 0.00 1.98 0.00 87 1013.1
20260507061534 11 147 3.2 6.4 0.00 2.26 0.00 88 1013.1
20260507060532 11 78 3.2 6.4 0.00 2.39 0.00 88 1012.9
20260507055529 11 124 3.2 4.8 0.00 2.39 0.00 88 1012.9
20260507054527 10 107 1.6 4.8 0.00 2.41 0.00 89 1012.9
20260507053525 10 91 1.6 4.8 0.00 2.41 0.00 91 1012.8
20260507052522 10 119 1.6 4.8 0.00 2.49 0.00 93 1012.6
20260507051519 9 95 1.6 6.4 0.00 2.59 0.00 96 1012.6
20260507050517 8 113 1.6 3.2 0.00 2.69 0.00 97 1012.5
20260507045535 8 123 3.2 6.4 0.00 2.72 0.00 97 1012.4
20260507044532 8 77 1.6 3.2 0.00 2.82 0.00 97 1012.4
20260507043530 8 69 0.0 3.2 0.00 2.87 0.00 97 1012.3
20260507042527 8 0.0 1.6 0.00 2.95 0.00 97 1012.3
20260507041525 7 320 0.0 3.2 0.00 2.97 0.00 97 1012.3
20260507040523 7 336 1.6 3.2 0.00 3.02 0.00 97 1012.1
20260507035520 7 267 1.6 4.8 0.00 3.15 0.00 97 1012.1
20260507034518 8 311 0.0 3.2 0.00 3.20 0.00 97 1012.2
20260507033515 7 302 1.6 4.8 0.00 3.20 0.00 97 1012.2
20260507032533 8 275 0.0 3.2 0.00 3.20 0.00 97 1012.2
20260507031531 8 354 1.6 3.2 0.00 3.25 0.00 97 1012.1
20260507030528 8 299 0.0 3.2 0.00 3.28 0.00 97 1012.2
20260507025526 8 1 1.6 4.8 0.00 3.30 0.00 97 1012.2
20260507024524 8 259 1.6 3.2 0.00 3.33 0.00 97 1012.2
20260507023521 8 71 1.6 3.2 0.00 3.38 0.00 98 1012.2
20260507022518 8 106 0.0 3.2 0.00 3.43 0.00 98 1012.3
20260507021516 8 31 1.6 3.2 0.00 3.43 0.00 98 1012.3
20260507020534 8 314 1.6 3.2 0.00 3.61 0.00 98 1012.3
20260507015531 8 123 0.0 3.2 0.00 3.73 0.00 98 1012.2
20260507014529 9 343 1.6 3.2 0.00 3.73 0.00 98 1012.2
20260507013526 9 74 1.6 3.2 0.00 3.73 0.00 98 1012.3
20260507012524 9 8 3.2 4.8 0.00 3.73 0.00 98 1012.2
20260507011522 10 31 1.6 3.2 0.00 3.73 0.00 98 1012.2
20260507010519 10 78 1.6 3.2 0.00 3.73 0.00 98 1012.3
20260507005517 10 346 0.0 3.2 0.00 3.81 0.00 97 1012.3
20260507004535 9 314 0.0 1.6 0.00 3.96 0.00 97 1012.2
20260507003532 10 0.0 3.2 0.00 4.19 0.00 97 1012.2
20260507002529 10 0.0 1.6 0.00 4.32 0.00 97 1012.1
20260507001527 10 247 0.0 3.2 0.00 4.42 0.00 97 1012.2
20260507000525 10 35 0.0 3.2 0.00 4.52 0.00 97 1012.3
20260506235522 10 320 0.0 3.2 0.00 4.57 0.00 96 1012.2
20260506234520 10 57 1.6 3.2 0.00 4.57 0.00 96 1012.3
20260506233518 10 257 0.0 3.2 0.00 4.57 0.00 96 1012.3
20260506232515 10 0.0 1.6 0.00 4.60 0.00 96 1012.3
20260506231533 10 303 0.0 3.2 0.00 4.90 0.00 96 1012.3
20260506230531 10 329 1.6 4.8 0.00 5.33 0.00 96 1012.3
20260506225528 10 57 1.6 3.2 0.00 5.51 0.00 96 1012.4
20260506224526 10 42 1.6 3.2 0.00 5.94 0.00 96 1012.4
20260506223523 10 320 0.0 3.2 0.00 5.97 0.00 96 1012.4
20260506222521 10 37 0.0 3.2 0.00 5.97 0.00 95 1012.3